Вернуться в каталог

STARLINK-3549

АктивенСвязьVLEO
NORAD 51891·PAYLOAD·🇺🇸 United States

Запущен Mar 3, 2022 с Cape Canaveral Space Force Station

Loading…

Ближайшие Пролёты (ближайшие 24 часа)

TLE

СвежийSource: CelesTrak SupGP

Эпоха: Sep 15, 2026, 01:59 UTC

1 51891C 22022AR  26258.08312500 -.00022082  00000+0 -65257-3 0  2585
2 51891  53.1570 212.6949 0001314  89.3001 118.7002 15.34394506    10

Отслеживайте STARLINK-3549 в реальном времени с AllMySat

Download on the App Store